Home   Weather   Jacksonville   Past weeks

Flag for USA Past Weather in Jacksonville, Florida, USA — Yesterday and Last 2 Weeks

Now
76 °F

Partly sunny.


Feels Like: 78 °F
Forecast: 64 / 78 °F
Wind: 20 mph from West

Location: Jacksonville Naval Air Station

Current Time: Apr 24, 2017 at 5:13:59 pm

Latest Report: Apr 24, 2017 at 3:53 pm


Visibility: 10 mi

Pressure: 29.67 "Hg

Humidity: 39%

Dew Point: 49 °F

Location of JacksonvilleLocation

Past Weather in Jacksonville — Graph

°F

Jacksonville Temperature Yesterday

Maximum temperature yesterday: 87 °F (at 2:53 pm)
Minimum temperature yesterday: 68 °F (at 6:53 am)
Average temperature yesterday: 77 °F

High & Low Weather Summary for the Past Weeks

 TemperatureHumidityPressure
High87 °F (Apr 23, 2:53 pm)90% (Apr 12, 6:53 am)30.32 "Hg (Apr 12, 6:53 am)
Low63 °F (Apr 12, 5:53 am)35% (Apr 16, 2:53 pm)29.68 "Hg (Apr 24, 2:53 pm)
Average74 °F66%30.13 "Hg
* Reported Apr 9 2:53 pm — Apr 24 2:53 pm, Jacksonville, Weather by CustomWeather, © 2017

Note: Actual official high and low records may vary slightly from our data, if they occured in-between our weather recording intervals... More about our weather records

Advertising

Jacksonville Weather History for the Previous 24 Hours

Scroll right to see more
 ConditionsComfort  
Time TempWeatherWind HumidityBarometerVisibility
2:53 pm
Mon, Apr 24
76 °FBroken clouds.21 mph43%29.68 "Hg10 mi
1:53 pm76 °FPartly sunny.17 mph47%29.69 "Hg10 mi
12:53 pm76 °FBroken clouds.12 mph48%29.70 "Hg10 mi
11:53 am73 °FBroken clouds.6 mph55%29.72 "Hg10 mi
10:53 am72 °FScattered clouds.8 mph57%29.73 "Hg10 mi
9:53 am69 °FScattered clouds.7 mph73%29.73 "Hg10 mi
8:53 am68 °FPartly sunny.10 mph76%29.72 "Hg10 mi
7:53 am68 °FPartly sunny.9 mph82%29.71 "Hg10 mi
6:53 am70 °FPartly sunny.7 mph87%29.70 "Hg10 mi
5:53 am71 °FPassing clouds.9 mph84%29.69 "Hg10 mi
4:53 am72 °FPassing clouds.9 mph81%29.69 "Hg10 mi
3:53 am72 °FPassing clouds.6 mph84%29.70 "Hg10 mi
2:53 am73 °FPassing clouds.9 mph79%29.72 "Hg10 mi
1:53 am74 °FPartly cloudy.8 mph76%29.74 "Hg10 mi
12:53 am75 °FPassing clouds.12 mph79%29.76 "Hg10 mi
11:53 pm
Sun, Apr 23
76 °FPassing clouds.12 mph74%29.77 "Hg10 mi
10:53 pm76 °FPartly cloudy.14 mph72%29.78 "Hg10 mi
9:53 pm77 °FLight rain. Passing clouds.10 mph66%29.78 "Hg10 mi
8:53 pm78 °FPartly cloudy.10 mph66%29.75 "Hg10 mi
7:53 pm79 °FPartly sunny.15 mph65%29.73 "Hg10 mi
6:53 pm81 °FPartly sunny.15 mph62%29.72 "Hg10 mi
5:53 pm83 °FScattered clouds.16 mph57%29.72 "Hg10 mi
Weather by CustomWeather, © 2017

See weather overviewHow to use our weather pages